Tracking 29892 objects as of 21-Nov-2024
HD Live streaming from Space Station
objects crossing your sky now

STARLINK-30333

Track STARLINK-30333 now!
10-day predictions
STARLINK-30333 is classified as:


NORAD ID: 57702
Int'l Code: 2023-129E
Perigee: 565.3 km
Apogee: 567.1 km
Inclination: 43.0 °
Period: 95.8 minutes
Semi major axis: 6937 km
RCS: Unknown
Launch date: August 27, 2023
Source: United States (US)
Launch site: AIR FORCE EASTERN TEST RANGE (AFETR)
Your satellite tracking list
Your tracking list is empty




NASA's NSSDC Master Catalog

Two Line Element Set (TLE):
1 57702U 23129E   24325.65516979  .00001651  00000-0  13723-3 0  9994
2 57702  43.0031 176.3855 0001243 265.5589  94.5111 15.02543561 69344
Source of the keplerian elements: AFSPC